www.pogodaiklimat.ru
Время
(UTC), дата
10 12.10
11 12.10
12 12.10
13 12.10
14 12.10
15 12.10
16 12.10
17 12.10
18 12.10
19 12.10
20 12.10
21 12.10
22 12.10
23 12.10
00 13.10
01 13.10
02 13.10
03 13.10
04 13.10
05 13.10
06 13.10
07 13.10
08 13.10
09 13.10
10 13.10
11 13.10
12 13.10
13 13.10
14 13.10
15 13.10
16 13.10
17 13.10
18 13.10
19 13.10
20 13.10
21 13.10
22 13.10
23 13.10
00 14.10
01 14.10
02 14.10
03 14.10
04 14.10
05 14.10
06 14.10
07 14.10
08 14.10
09 14.10
10 14.10
11 14.10
12 14.10
13 14.10
14 14.10
15 14.10
16 14.10
17 14.10
18 14.10
19 14.10
20 14.10
21 14.10
22 14.10
23 14.10
00 15.10
01 15.10
02 15.10
03 15.10
05 15.10
06 15.10
07 15.10
08 15.10
09 15.10
10 15.10
11 15.10
12 15.10
13 15.10
14 15.10
15 15.10
16 15.10
17 15.10
18 15.10
19 15.10
20 15.10
21 15.10
22 15.10
23 15.10
00 16.10
01 16.10
02 16.10
03 16.10
04 16.10
06 16.10
07 16.10
08 16.10
09 16.10
10 16.10
11 16.10
12 16.10
13 16.10
14 16.10
15 16.10
16 16.10
17 16.10
18 16.10
19 16.10
21 16.10
22 16.10
23 16.10
00 17.10
02 17.10
03 17.10
04 17.10
05 17.10
06 17.10
07 17.10
08 17.10
09 17.10
10 17.10
11 17.10
12 17.10
13 17.10
14 17.10
15 17.10
16 17.10
17 17.10
18 17.10
19 17.10
20 17.10
21 17.10
22 17.10
23 17.10
00 18.10
01 18.10
02 18.10
03 18.10
04 18.10
05 18.10
06 18.10
09 18.10
10 18.10
11 18.10
12 18.10
13 18.10
14 18.10
15 18.10
16 18.10
17 18.10
18 18.10
19 18.10
20 18.10
21 18.10
22 18.10
23 18.10
00 19.10
01 19.10
02 19.10
03 19.10
05 19.10
06 19.10
08 19.10
09 19.10
Ветер
(напр.,м/с)
Видим. Явления Облачность Т
(С)
Тd
(С)
f
(%)
Тe
(С)
Тes
(С)
Комфортность P
(гПа)
Po
(гПа)
Тmin
(С)
Tmax
(С)
R
(мм)
R24
(мм)
S
(см)
С 6 н/о н/о +23.2 +15.3 61 +27 +27 душно 1006.0 1002.4
С 6 н/о н/о +22.9 +14.7 60 +27 +27 душно 1007.0 1003.4
С 6 20 км 3/3
[Cu hum]
+22.5 +14.9 62 +26 +26 жарко 1008.0 1004.4 +28.6
С 5 н/о н/о +22.2 +14.3 61 +25 +25 комфорт 1008.8 1005.1
С 5 н/о н/о +22.0 +13.4 58 +25 +25 комфорт 1009.3 1005.6
С 7 н/о н/о +21.3 +13.0 59 +24 +24 комфорт 1009.2 1005.5
С 7 н/о н/о +20.9 +12.3 58 +23 +23 комфорт 1009.5 1005.8
С 6 н/о н/о +20.6 +11.8 57 +22 +22 комфорт 1009.9 1006.2
С 5 30 км 1/1
[Cu hum]
+20.3 +11.5 57 +22 +22 комфорт 1010.3 1006.6
С 4 н/о н/о +19.9 +11.4 58 +22 +22 комфорт 1011.0 1007.3
С 5 н/о н/о +19.5 +11.3 59 +20 +20 по сезону 1011.6 1007.9
С 5 20 км 1/1
[Sc]
+19.0 +11.6 62 +20 +20 по сезону 1012.3 1008.6
С 4 н/о н/о +19.0 +11.6 62 +20 +20 по сезону 1012.8 1009.1
С 3 н/о н/о +21.0 +12.4 58 +24 +24 комфорт 1013.4 1009.7
С 4 30 км 1/1
[Sc]
+21.6 +14.3 63 +25 +27 комфорт 1014.0 1010.3 +18.6
Ю 1 н/о н/о +23.3 +14.6 58 +27 +27 душно 1014.8 1011.1
В 3 н/о н/о +24.0 +16.0 61 +27 +27 жарко 1014.9 1011.2
В 2 20 км 3/1
[Cu hum Ac trans]
+25.4 +15.7 55 +29 +39 душно 1014.7 1011.1
В 3 н/о н/о +25.6 +14.7 51 +28 +28 жарко 1014.0 1010.4
Ю 3 н/о н/о +25.3 +14.8 52 +28 +28 жарко 1013.7 1010.1
ЮВ 2 25 км 1/1
[Cu hum Ac trans]
+25.7 +15.4 53 +29 +35 душно 1013.6 1010.0
СЗ 4 н/о н/о +26.1 +16.1 54 +29 +29 жарко 1013.9 1010.3
З 4 н/о н/о +24.9 +16.1 58 +28 +28 жарко 1014.6 1011.0
З 2 15 км 1/1
[Cu hum Ac trans]
+23.8 +16.4 63 +27 +27 жарко 1015.5 1011.8
З 3 н/о н/о +23.6 +16.4 64 +27 +27 жарко 1016.2 1012.5
З 4 н/о н/о +23.2 +16.5 66 +28 +28 душно 1016.7 1013.0
З 2 15 км 3/1
[Cu hum Ac trans Ci fib]
+22.7 +16.5 68 +27 +27 душно 1017.3 1013.6 +26.8
ЮЗ 3 н/о н/о +22.7 +16.7 69 +27 +27 душно 1017.3 1013.6
В 2 н/о н/о +23.1 +17.1 69 +28 +28 душно 1017.7 1014.0
СВ 2 н/о н/о +22.3 +17.2 73 +27 +27 душно 1017.5 1013.8
С 3 н/о н/о +21.3 +16.9 76 +25 +25 комфорт 1017.7 1014.0
СЗ 3 н/о н/о +20.4 +16.7 79 +24 +24 комфорт 1017.7 1014.0
С 4 15 км 6/1
[Cu hum Ac trans Ci fib]
+20.0 +16.1 78 +23 +23 комфорт 1017.5 1013.8
С 3 н/о н/о +20.2 +15.6 75 +23 +23 комфорт 1017.6 1013.9
С 3 н/о н/о +19.9 +16.0 78 +23 +23 комфорт 1017.8 1014.1
СЗ 4 20 км 1/0
[Ac trans]
+19.2 +15.7 80 +21 +21 комфорт 1018.3 1014.6
С 2 н/о н/о +20.0 +16.1 78 +23 +23 комфорт 1018.7 1015.0
С 3 н/о н/о +20.6 +16.2 76 +24 +24 комфорт 1019.1 1015.4
СЗ 2 20 км 1/1
[Cu hum Ac trans]
+23.4 +17.4 69 +29 +33 душно 1019.4 1015.7 +19.0
СВ 2 н/о н/о +24.0 +16.8 64 +28 +28 душно 1019.3 1015.6
В 2 н/о н/о +24.4 +16.9 63 +28 +28 душно 1019.0 1015.3
ЮВ 3 15 км 8/8
[Cu Sc]
+25.3 +17.8 63 +30 +32 душно 1018.4 1014.8
Ю 2 н/о н/о +25.2 +17.4 62 +29 +29 душно 1017.9 1014.3
ЮВ 3 н/о н/о +25.0 +17.7 64 +29 +29 душно 1017.4 1013.8
ЮВ 3 15 км 3/3
[Cu Sc Ac trans]
+25.7 +18.1 63 +30 +34 душно 1017.0 1013.4
З 5 н/о н/о +26.0 +16.0 54 +29 +29 душно 1017.3 1013.7
З 4 н/о н/о +24.9 +15.5 56 +28 +28 жарко 1017.6 1013.9
З 3 20 км 1/1
[Cu med, cong Ac trans]
+23.9 +15.2 58 +27 +27 жарко 1018.6 1014.9
С 4 н/о н/о +22.8 +13.6 56 +26 +26 жарко 1019.4 1015.7
С 3 н/о н/о +22.4 +12.9 55 +25 +25 комфорт 1019.5 1015.8
С 3 20 км 4/1
[Cu hum Ac trans]
+22.0 +13.4 58 +25 +25 комфорт 1019.8 1016.1 +26.9
С 4 н/о н/о +21.3 +14.0 63 +24 +24 комфорт 1019.9 1016.2
СЗ 3 н/о н/о +20.4 +14.3 68 +23 +23 комфорт 1019.8 1016.1
СЗ 4 н/о н/о +20.3 +14.7 70 +23 +23 комфорт 1019.7 1016.0
С 3 н/о н/о +19.8 +14.6 72 +22 +22 комфорт 1019.9 1016.2
С 3 н/о н/о +19.6 +14.6 73 +22 +22 комфорт 1019.8 1016.1
СЗ 4 20 км 1/1
[Cu hum Ac trans]
+19.2 +14.7 75 +21 +21 комфорт 1019.3 1015.6
С 4 н/о н/о +18.8 +14.7 77 +20 +20 тепло 1019.4 1015.7
С 4 н/о н/о +18.9 +14.8 77 +20 +20 тепло 1019.6 1015.9
С 4 20 км 3/1
[Cu hum Ac trans]
+18.6 +14.5 77 +19 +19 по сезону 1020.3 1016.5
С 5 н/о н/о +18.2 +14.3 78 +18 +18 прохладно 1020.4 1016.6
С 3 н/о н/о +20.4 +14.8 70 +23 +23 комфорт 1020.8 1017.1
С 4 15 км 1/0
[Ac trans]
+21.7 +15.1 66 +25 +28 комфорт 1021.0 1017.3 +18.1
С 2 н/о н/о +22.4 +15.3 64 +26 +26 жарко 1021.2 1017.5
В 2 н/о н/о +23.9 +15.9 61 +27 +27 жарко 1020.9 1017.2
Ю 2 15 км 3/1
[Cu hum Ac trans]
+25.1 +17.6 63 +29 +39 душно 1020.3 1016.6
Ю 2 н/о н/о +25.7 +16.0 55 +29 +29 душно 1019.2 1015.6
Ю 2 8000 м дым 9/1
[Cu med, cong Ac trans Ci sp]
+25.6 +16.2 56 +29 +32 душно 1019.2 1015.6
Ю 3 н/о н/о +25.7 +16.8 58 +29 +29 душно 1019.3 1015.7
ЮВ 3 н/о н/о +25.0 +17.5 63 +29 +29 душно 1019.7 1016.0
В 3 25 км 9/3
[Cu med, cong Ac trans Ci sp]
+24.6 +15.3 56 +28 +28 душно 1020.2 1016.5
СВ 6 н/о н/о +23.2 +16.0 64 +28 +28 душно 1020.5 1016.8
СВ 6 н/о н/о +22.7 +16.0 66 +27 +27 душно 1021.1 1017.4
С 7 20 км 8/1
[Cu hum Ac trans Ci sp]
+22.3 +15.4 65 +26 +26 жарко 1021.7 1018.0 +26.5
СВ 6 н/о н/о +22.0 +14.2 61 +25 +25 комфорт 1021.9 1018.2
СВ 6 н/о н/о +21.9 +13.3 58 +25 +25 комфорт 1021.8 1018.1
С 5 н/о н/о +21.6 +14.3 63 +25 +25 комфорт 1021.9 1018.2
С 4 н/о н/о +21.3 +14.0 63 +24 +24 комфорт 1021.7 1018.0
С 4 н/о н/о +21.2 +14.4 65 +24 +24 комфорт 1021.5 1017.8
С 4 25 км 8/3
[Cu Sc Ci sp]
+21.0 +14.2 65 +24 +24 комфорт 1021.2 1017.5
С 2 н/о н/о +20.9 +14.6 67 +24 +24 комфорт 1021.0 1017.3
С 3 н/о н/о +20.7 +13.2 62 +24 +24 комфорт 1021.2 1017.5
С 3 20 км 9/8
[Sc Ac trans]
+20.7 +14.4 67 +24 +24 комфорт 1021.4 1017.7
С 4 н/о н/о +20.8 +15.4 71 +24 +24 комфорт 1021.6 1017.9
С 4 н/о н/о +21.6 +15.2 67 +25 +25 комфорт 1022.0 1018.3
С 4 25 км 1/1
[Sc Ac trans Ci sp]
+22.6 +15.2 63 +26 +29 жарко 1022.0 1018.3 +20.5
Ю 2 н/о н/о +23.3 +14.9 59 +27 +27 душно 1022.0 1018.3
Ю 2 н/о н/о +24.1 +15.9 60 +27 +27 жарко 1021.4 1017.7
Ю 2 30 км 1/1
[Cu hum]
+24.4 +15.9 59 +28 +38 душно 1020.9 1017.2
Ю 3 н/о н/о +25.2 +16.4 58 +29 +29 душно 1020.4 1016.7
Ю 3 20 км 8/8
[Cu Sc]
+24.7 +17.2 63 +29 +30 душно 1019.6 1015.9
Ю 3 н/о н/о +24.7 +16.9 62 +28 +28 душно 1019.5 1015.8
Ю 2 н/о н/о +24.3 +16.8 63 +28 +28 душно 1019.6 1015.9
Ю 3 20 км 4/3
[Cu med, cong Ac trans Ci sp]
+23.7 +17.2 67 +28 +28 душно 1020.1 1016.4
Ю 2 н/о н/о +23.4 +17.2 68 +29 +29 душно 1020.4 1016.7
С 5 н/о н/о +21.9 +16.6 72 +26 +26 душно 1020.7 1017.0
С 4 20 км 1/0
[Ac trans Ci fib]
+21.5 +16.5 73 +25 +25 комфорт 1021.1 1017.4 +26.2
СВ 6 н/о н/о +21.1 +16.1 73 +24 +24 комфорт 1021.1 1017.4
СВ 5 н/о н/о +20.8 +15.8 73 +24 +24 комфорт 1021.0 1017.3
СВ 5 н/о н/о +20.9 +15.7 72 +24 +24 комфорт 1021.1 1017.4
СВ 4 н/о н/о +20.9 +15.7 72 +24 +24 комфорт 1021.0 1017.3
СВ 5 н/о н/о +20.6 +15.4 72 +23 +23 комфорт 1020.4 1016.7
СВ 5 15 км 9/0
[Ac As]
+20.4 +15.0 71 +23 +23 комфорт 1019.6 1015.9
СВ 4 н/о н/о +20.6 +15.2 71 +24 +24 комфорт 1019.6 1015.9
СВ 3 20 км 9/1
[Cu med, cong Ac As Ci sp]
+21.1 +15.4 70 +24 +24 комфорт 1020.0 1016.3
СВ 4 н/о н/о +21.2 +15.5 70 +24 +24 комфорт 1019.7 1016.0
СВ 3 н/о н/о +21.7 +16.2 71 +25 +25 комфорт 1020.3 1016.6
СВ 3 25 км в посл. час ливневой дождь 9/4
[Cu med, cong Ac As]
+21.9 +16.2 70 +26 +27 душно 1020.6 1016.9 +20.3 0.0
СВ 4 н/о н/о +24.2 +16.5 62 +28 +28 душно 1020.0 1016.3
СВ 4 25 км {ливн. осадки} 9/1
[Cu med, cong Ac As]
+24.3 +15.8 59 +27 +30 жарко 1019.4 1015.7
СВ 5 н/о н/о +24.7 +17.4 64 +29 +29 душно 1019.0 1015.3
СВ 5 н/о н/о +25.2 +17.9 64 +30 +30 душно 1018.2 1014.6
СВ 5 25 км {ливн. осадки} 9/1
[Cu med, cong Ac As]
+24.6 +17.6 65 +29 +30 душно 1018.2 1014.5 0.0
СВ 4 н/о н/о +25.1 +18.3 66 +30 +30 душно 1017.4 1013.8
СВ 5 н/о н/о +24.5 +18.0 67 +29 +29 душно 1017.9 1014.2
С 5 20 км {ливн. осадки} 9/3
[Cu Sc Ac As]
+24.3 +17.6 66 +28 +28 душно 1018.3 1014.6
СВ 5 н/о н/о +24.0 +17.5 67 +28 +28 душно 1018.5 1014.8
СВ 4 н/о н/о +23.9 +17.6 68 +28 +28 душно 1018.5 1014.8
СВ 3 15 км {ливн. осадки, дождь} 9/3
[Cu Sc Ac As]
+23.5 +18.2 72 +28 +28 душно 1018.6 1014.9 +25.8 0.0
СВ 6 н/о н/о +23.0 +18.1 74 +29 +29 очень
душно
1018.9 1015.2
СВ 4 н/о н/о +23.2 +18.1 73 +29 +29 душно 1019.4 1015.7
В 5 н/о н/о +24.0 +18.2 70 +28 +28 душно 1018.5 1014.8
С 5 н/о н/о +23.4 +18.1 72 +29 +29 душно 1018.6 1014.9
СВ 3 н/о н/о +23.7 +18.4 72 +28 +28 душно 1017.7 1014.0
СВ 5 15 км в посл. час дождь 10/5
[Cu Sc Ac As]
+23.7 +19.0 75 +28 +28 душно 1017.1 1013.4 0.0
СВ 6 н/о н/о +23.9 +19.0 74 +29 +29 душно 1016.4 1012.7
СВ 4 н/о н/о +23.7 +19.7 78 +29 +29 душно 1016.5 1012.8
СВ 5 15 км в посл. час дождь 10/6
[Cu Sc Ac As]
+23.7 +19.4 77 +29 +29 душно 1016.8 1013.1
В 2 н/о н/о +23.1 +20.4 85 +30 +30 очень
душно
1017.1 1013.4
С 4 н/о н/о +23.7 +20.1 80 +29 +29 душно 1017.1 1013.4
СВ 4 15 км {ливн. осадки, дождь} 9/3
[Cu med, cong Ac As]
+24.3 +20.0 77 +30 +31 очень
душно
1017.0 1013.3 +22.9 0.0
В 3 н/о н/о +25.3 +20.6 75 +31 +31 очень
душно
1016.5 1012.9
СВ 4 н/о н/о +26.4 +21.4 74 +34 +34 очень
душно
1016.4 1012.8
В 2 25 км 9/1
[Cu med, cong Ac trans Ci sp]
+25.9 +20.5 72 +32 +38 очень
душно
1015.6 1012.0
ЮВ 1 н/о н/о +27.0 +21.8 73 +35 +35 очень
душно
1014.4 1010.8
ЮВ 2 н/о н/о +26.8 +21.3 72 +34 +34 очень
душно
1013.9 1010.3
Ю 2 25 км в посл. час ливневой дождь 9/3
[Cu med, cong Ac As]
+26.8 +21.6 73 +34 +36 очень
душно
1013.7 1010.1 0.0
Ю 7 25 км {ливн. осадки} 9/6
[Cu med, cong Ac As]
+26.8 +23.3 81 +36 +36 очень
душно
1013.4 1009.8
Ю 5 н/о н/о +26.4 +23.9 86 +36 +36 очень
душно
1013.9 1010.3
ЮВ 4 н/о н/о +26.0 +23.5 86 +35 +35 очень
душно
1013.7 1010.1
ЮВ 4 20 км слаб. ливневой дождь 9/9
[Cu med, cong]
+25.9 +23.8 88 +35 +35 очень
душно
1013.9 1010.3 +27.9 0.0
Ю 4 н/о н/о +25.6 +23.7 89 +35 +35 очень
душно
1014.2 1010.6
Ю 4 н/о н/о +25.7 +23.0 85 +34 +34 очень
душно
1013.4 1009.8
ЮВ 3 н/о н/о +25.5 +23.6 89 +35 +35 очень
душно
1013.3 1009.7
ЮВ 3 н/о н/о +25.3 +23.2 88 +34 +34 очень
душно
1013.0 1009.4
Ю 5 н/о н/о +25.3 +22.8 86 +33 +33 очень
душно
1012.9 1009.3
Ю 3 20 км {ливн. осадки} 9/9
[Cu med, cong]
+25.2 +22.1 83 +33 +33 очень
душно
1012.8 1009.2 0.0
Ю 4 н/о н/о +24.9 +22.2 85 +32 +32 очень
душно
1012.8 1009.2
Ю 2 н/о н/о +24.5 +22.0 86 +32 +32 очень
душно
1013.1 1009.5
ЮЗ 1 30 км в посл. час ливневой дождь 9/9
[Cu med, cong]
+24.3 +21.8 86 +31 +31 очень
душно
1013.7 1010.1
С 2 н/о н/о +24.1 +22.0 88 +31 +31 очень
душно
1014.1 1010.5
З 2 н/о н/о +24.6 +21.9 85 +32 +32 очень
душно
1014.6 1011.0
З 3 30 км {ливн. осадки} 9/6
[Cu med, cong Ac As]
+25.3 +21.2 78 +32 +33 очень
душно
1015.1 1011.5 +24.0 0.0
З 4 н/о н/о +25.8 +20.8 74 +32 +32 очень
душно
1015.1 1011.5
З 3 н/о н/о +26.1 +20.7 72 +33 +33 очень
душно
1014.9 1011.3
З 4 35 км 4/4
[Cu med, cong Ac trans]
+28.9 +21.4 64 +37 +42 очень
душно
1014.2 1010.6
З 5 н/о н/о +29.3 +20.2 58 +36 +36 очень
душно
1013.2 1009.6
З 4 40 км 5/5
[Cu med, cong Ac trans Ci fib]
+28.9 +19.8 58 +35 +37 очень
душно
1013.1 1009.5
СЗ 4 н/о н/о +26.8 +19.2 63 +32 +32 очень
душно
1014.1 1010.5
СЗ 3 40 км 8/4
[Cu Sc Ac trans Ci fib]
+25.6 +18.5 65 +30 +30 душно 1014.7 1011.1
Местоположение метеостанции Кагосима (Япония): широта 31.55 долгота 130.55 высота над уровнем моря 32 м.
В архиве по умолчанию представлена погода в Кагосиме за последнюю неделю. Архивные данные за месяц целиком и за предыдущие месяцы, начиная с января 2011 года, Вы можете получить, выбрав интересующий диапазон дат из раскрывающегося списка и нажав кнопку "Найти!".
*Определитесь, кто Вы:
Внимание! Время в таблицах - всемирное. Для получения местного времени необходимо прибавить поправку, которая равна 9 ч.
Смотрите также архив погоды в соседних городах и на ближайших метеорологических станциях:
Партнеры нашего сайта:      
Пояснения к столбцам:
  • Ветер - указаны скорость ветра в м/с - средняя за 10 мин, порывы в срок и между сроками (в фигурных скобках) и направление, откуда дует ветер: С - северный,
  • СВ - северо-восточный, В - восточный, ЮВ - юго-восточный, Ю - южный, ЮЗ - юго-западный, З - западный, СЗ - северо-западный.
  • Видимость - горизонтальная дальность видимости в метрах или километрах. При видимости от 1 до 10 км при отсутствии осадков обычно наблюдается дымка, при ухудшении видимости до 1 км и менее - туман. В сухую погоду видимость может ухудшаться дымом, пылью или мглою.
  • Явления - указаны атмосферные явления, наблюдавшиеся в срок или в последний час перед сроком; фигурными скобками обозначены явления, наблюдавшиеся между сроками (за 1-3 часа до срока); квадратными скобками обозначены град или гололедные отложения с указанием их диаметра в мм.
  • Облачность - указаны через наклонную черту общая и нижняя облачность в баллах и высота нижней границы облаков в метрах; квадратными скобками обозначены формы облаков: Ci - перистые, Cs - перисто-слоистые, Cc - перисто-кучевые, Ac - высококучевые, As - высокослоистые, Sc - слоисто-кучевые, Ns - слоисто-дождевые, Cu - кучевые, Cb - кучево-дождевые. Подробнее классификацию облаков см. в Атласе облаков (PDF).
  • T - Температура воздуха - температура, измеренная на высоте 2 м над землей.
  • Td - Температура точки росы - температура, при понижении до которой содержащийся в воздухе водяной пар достигнет насыщения.
  • f - Относительная влажность воздуха - влажноcть воздуха, измеренная на высоте 2 м над землей.
  • Te - Эффективная температура - температура, которую ощущает одетый по сезону человек в тени. Характеристика душности погоды. При расчете учитывается влияние влажности воздуха и скорости ветра на теплоощущения человека.
  • Tes - Эффективная температура на солнце - температура, которую ощущает человек, с поправкой на солнечный нагрев. Характеристика знойности погоды. Зависит от высоты солнца над горизонтом, облачности и скорости ветра. Ночью, в пасмурную погоду, а также при ветре 12 м/с и более поправка равна нулю.
  • P - Атмосферное давление - приведенное к уровню моря атмосферное давление.
  • Po - Атмосферное давление - измеренное на уровне метеостанции атмосферное давление.
  • Tmin - Минимальная температура - минимум температуры воздуха на высоте 2 м над землей.
  • Tmax - Максимальная температура - максимум температуры воздуха на высоте 2 м над землей.
  • R - Количество осадков - Количество выпавших осадков за период времени, мм. При наведении курсора мыши на число - период времени, за который выпало указанное количество осадков.
  • R24 - Количество осадков - Количество выпавших осадков за 24 часа, мм.
  • S - Снежный покров - Высота снежного покрова, см. При наведении курсора мыши на число - состояние снежного покрова и степень покрытия местности в баллах.